Year,Month,Day,Hour,Minute,Value (Times are PST for insolation in W/m^2)
2016,07,08,00,00,0.00
2016,07,08,00,01,0.00
2016,07,08,00,02,0.00
2016,07,08,00,03,0.00
2016,07,08,00,04,0.00
2016,07,08,00,05,0.00
2016,07,08,00,06,0.00
2016,07,08,00,07,0.00
2016,07,08,00,08,0.00
2016,07,08,00,09,0.00
2016,07,08,00,10,0.00
2016,07,08,00,11,0.00
2016,07,08,00,12,0.00
2016,07,08,00,13,0.00
2016,07,08,00,14,0.00
2016,07,08,00,15,0.00
2016,07,08,00,16,0.00
2016,07,08,00,17,0.00
2016,07,08,00,18,0.00
2016,07,08,00,19,0.00
2016,07,08,00,20,0.00
2016,07,08,00,21,0.00
2016,07,08,00,22,0.00
2016,07,08,00,23,0.00
2016,07,08,00,24,0.00
2016,07,08,00,25,0.00
2016,07,08,00,26,0.00
2016,07,08,00,27,0.00
2016,07,08,00,28,0.00
2016,07,08,00,29,0.00
2016,07,08,00,30,0.00
2016,07,08,00,31,0.00
2016,07,08,00,32,0.00
2016,07,08,00,33,0.00
2016,07,08,00,34,0.00
2016,07,08,00,35,0.00
2016,07,08,00,36,0.00
2016,07,08,00,37,0.00
2016,07,08,00,38,0.00
2016,07,08,00,39,0.00
2016,07,08,00,40,0.00
2016,07,08,00,41,0.00
2016,07,08,00,42,0.00
2016,07,08,00,43,0.00
2016,07,08,00,44,0.00
2016,07,08,00,45,0.00
2016,07,08,00,46,0.00
2016,07,08,00,47,0.00
2016,07,08,00,48,0.00
2016,07,08,00,49,0.00
2016,07,08,00,50,0.00
2016,07,08,00,51,0.00
2016,07,08,00,52,0.00
2016,07,08,00,53,0.00
2016,07,08,00,54,0.00
2016,07,08,00,55,0.00
2016,07,08,00,56,0.00
2016,07,08,00,57,0.00
2016,07,08,00,58,0.00
2016,07,08,00,59,0.00
2016,07,08,01,00,0.00
2016,07,08,01,01,0.00
2016,07,08,01,02,0.00
2016,07,08,01,03,0.00
2016,07,08,01,04,0.00
2016,07,08,01,05,0.00
2016,07,08,01,06,0.00
2016,07,08,01,07,0.00
2016,07,08,01,08,0.00
2016,07,08,01,09,0.00
2016,07,08,01,10,0.00
2016,07,08,01,11,0.00
2016,07,08,01,12,0.00
2016,07,08,01,13,0.00
2016,07,08,01,14,0.00
2016,07,08,01,15,0.00
2016,07,08,01,16,0.00
2016,07,08,01,17,0.00
2016,07,08,01,18,0.00
2016,07,08,01,19,0.00
2016,07,08,01,20,0.00
2016,07,08,01,21,0.00
2016,07,08,01,22,0.00
2016,07,08,01,23,0.00
2016,07,08,01,24,0.00
2016,07,08,01,25,0.00
2016,07,08,01,26,0.00
2016,07,08,01,27,0.00
2016,07,08,01,28,0.00
2016,07,08,01,29,0.00
2016,07,08,01,30,0.00
2016,07,08,01,31,0.00
2016,07,08,01,32,0.00
2016,07,08,01,33,0.00
2016,07,08,01,34,0.00
2016,07,08,01,35,0.00
2016,07,08,01,36,0.00
2016,07,08,01,37,0.00
2016,07,08,01,38,0.00
2016,07,08,01,39,0.00
2016,07,08,01,40,0.00
2016,07,08,01,41,0.00
2016,07,08,01,42,0.00
2016,07,08,01,43,0.00
2016,07,08,01,44,0.00
2016,07,08,01,45,0.00
2016,07,08,01,46,0.00
2016,07,08,01,47,0.00
2016,07,08,01,48,0.00
2016,07,08,01,49,0.00
2016,07,08,01,50,0.00
2016,07,08,01,51,0.00
2016,07,08,01,52,0.00
2016,07,08,01,53,0.00
2016,07,08,01,54,0.00
2016,07,08,01,55,0.00
2016,07,08,01,56,0.00
2016,07,08,01,57,0.00
2016,07,08,01,58,0.00
2016,07,08,01,59,0.00
2016,07,08,02,00,0.00
2016,07,08,02,01,0.00
2016,07,08,02,02,0.00
2016,07,08,02,03,0.00
2016,07,08,02,04,0.00
2016,07,08,02,05,0.00
2016,07,08,02,06,0.00
2016,07,08,02,07,0.00
2016,07,08,02,08,0.00
2016,07,08,02,09,0.00
2016,07,08,02,10,0.00
2016,07,08,02,11,0.00
2016,07,08,02,12,0.00
2016,07,08,02,13,0.00
2016,07,08,02,14,0.00
2016,07,08,02,15,0.00
2016,07,08,02,16,0.00
2016,07,08,02,17,0.00
2016,07,08,02,18,0.00
2016,07,08,02,19,0.00
2016,07,08,02,20,0.00
2016,07,08,02,21,0.00
2016,07,08,02,22,0.00
2016,07,08,02,23,0.00
2016,07,08,02,24,0.00
2016,07,08,02,25,0.00
2016,07,08,02,26,0.00
2016,07,08,02,27,0.00
2016,07,08,02,28,0.00
2016,07,08,02,29,0.00
2016,07,08,02,30,0.00
2016,07,08,02,31,0.00
2016,07,08,02,32,0.00
2016,07,08,02,33,0.00
2016,07,08,02,34,0.00
2016,07,08,02,35,0.00
2016,07,08,02,36,0.00
2016,07,08,02,37,0.00
2016,07,08,02,38,0.00
2016,07,08,02,39,0.00
2016,07,08,02,40,0.00
2016,07,08,02,41,0.00
2016,07,08,02,42,0.00
2016,07,08,02,43,0.00
2016,07,08,02,44,0.00
2016,07,08,02,45,0.00
2016,07,08,02,46,0.00
2016,07,08,02,47,0.00
2016,07,08,02,48,0.00
2016,07,08,02,49,0.00
2016,07,08,02,50,0.00
2016,07,08,02,51,0.00
2016,07,08,02,52,0.00
2016,07,08,02,53,0.00
2016,07,08,02,54,0.00
2016,07,08,02,55,0.00
2016,07,08,02,56,0.00
2016,07,08,02,57,0.00
2016,07,08,02,58,0.00
2016,07,08,02,59,0.00
2016,07,08,03,00,0.00
2016,07,08,03,01,0.00
2016,07,08,03,02,0.00
2016,07,08,03,03,0.00
2016,07,08,03,04,0.00
2016,07,08,03,05,0.00
2016,07,08,03,06,0.00
2016,07,08,03,07,0.00
2016,07,08,03,08,0.00
2016,07,08,03,09,0.00
2016,07,08,03,10,0.00
2016,07,08,03,11,0.00
2016,07,08,03,12,0.00
2016,07,08,03,13,0.00
2016,07,08,03,14,0.00
2016,07,08,03,15,0.00
2016,07,08,03,16,0.00
2016,07,08,03,17,0.00
2016,07,08,03,18,0.00
2016,07,08,03,19,0.00
2016,07,08,03,20,0.00
2016,07,08,03,21,0.00
2016,07,08,03,22,0.00
2016,07,08,03,23,0.00
2016,07,08,03,24,0.00
2016,07,08,03,25,0.00
2016,07,08,03,26,0.00
2016,07,08,03,27,0.00
2016,07,08,03,28,0.00
2016,07,08,03,29,0.00
2016,07,08,03,30,0.00
2016,07,08,03,31,0.00
2016,07,08,03,32,0.00
2016,07,08,03,33,0.00
2016,07,08,03,34,0.00
2016,07,08,03,35,0.00
2016,07,08,03,36,0.00
2016,07,08,03,37,0.00
2016,07,08,03,38,0.00
2016,07,08,03,39,0.00
2016,07,08,03,40,0.00
2016,07,08,03,41,0.00
2016,07,08,03,42,0.00
2016,07,08,03,43,0.00
2016,07,08,03,44,0.00
2016,07,08,03,45,0.00
2016,07,08,03,46,0.00
2016,07,08,03,47,0.00
2016,07,08,03,48,0.00
2016,07,08,03,49,0.00
2016,07,08,03,50,0.00
2016,07,08,03,51,0.00
2016,07,08,03,52,0.00
2016,07,08,03,53,0.00
2016,07,08,03,54,0.00
2016,07,08,03,55,0.00
2016,07,08,03,56,0.00
2016,07,08,03,57,0.00
2016,07,08,03,58,0.00
2016,07,08,03,59,0.00
2016,07,08,04,00,0.00
2016,07,08,04,01,0.00
2016,07,08,04,02,0.00
2016,07,08,04,03,0.00
2016,07,08,04,04,0.00
2016,07,08,04,05,0.00
2016,07,08,04,06,0.00
2016,07,08,04,07,0.00
2016,07,08,04,08,0.00
2016,07,08,04,09,0.00
2016,07,08,04,10,0.00
2016,07,08,04,11,0.00
2016,07,08,04,12,0.00
2016,07,08,04,13,0.00
2016,07,08,04,14,0.00
2016,07,08,04,15,0.00
2016,07,08,04,16,0.00
2016,07,08,04,17,0.00
2016,07,08,04,18,0.00
2016,07,08,04,19,0.00
2016,07,08,04,20,0.00
2016,07,08,04,21,0.00
2016,07,08,04,22,0.00
2016,07,08,04,23,0.00
2016,07,08,04,24,0.00
2016,07,08,04,25,0.00
2016,07,08,04,26,0.00
2016,07,08,04,27,0.00
2016,07,08,04,28,0.00
2016,07,08,04,29,0.00
2016,07,08,04,30,0.00
2016,07,08,04,31,0.00
2016,07,08,04,32,0.00
2016,07,08,04,33,0.00
2016,07,08,04,34,0.00
2016,07,08,04,35,0.00
2016,07,08,04,36,0.00
2016,07,08,04,37,0.00
2016,07,08,04,38,0.00
2016,07,08,04,39,0.00
2016,07,08,04,40,0.00
2016,07,08,04,41,0.00
2016,07,08,04,42,0.00
2016,07,08,04,43,0.00
2016,07,08,04,44,0.00
2016,07,08,04,45,0.00
2016,07,08,04,46,0.00
2016,07,08,04,47,0.00
2016,07,08,04,48,0.00
2016,07,08,04,49,0.00
2016,07,08,04,50,0.00
2016,07,08,04,51,0.00
2016,07,08,04,52,0.00
2016,07,08,04,53,0.00
2016,07,08,04,54,0.00
2016,07,08,04,55,0.00
2016,07,08,04,56,0.00
2016,07,08,04,57,0.00
2016,07,08,04,58,0.00
2016,07,08,04,59,0.00
2016,07,08,05,00,0.00
2016,07,08,05,01,0.00
2016,07,08,05,02,0.00
2016,07,08,05,03,0.00
2016,07,08,05,04,0.00
2016,07,08,05,05,0.00
2016,07,08,05,06,0.00
2016,07,08,05,07,0.00
2016,07,08,05,08,0.00
2016,07,08,05,09,0.00
2016,07,08,05,10,0.00
2016,07,08,05,11,0.00
2016,07,08,05,12,0.00
2016,07,08,05,13,0.00
2016,07,08,05,14,0.00
2016,07,08,05,15,0.00
2016,07,08,05,16,0.00
2016,07,08,05,17,0.00
2016,07,08,05,18,0.00
2016,07,08,05,19,0.00
2016,07,08,05,20,0.00
2016,07,08,05,21,0.00
2016,07,08,05,22,2.20
2016,07,08,05,23,5.00
2016,07,08,05,24,5.00
2016,07,08,05,25,5.00
2016,07,08,05,26,5.00
2016,07,08,05,27,7.00
2016,07,08,05,28,7.00
2016,07,08,05,29,7.60
2016,07,08,05,30,9.00
2016,07,08,05,31,9.00
2016,07,08,05,32,9.00
2016,07,08,05,33,10.50
2016,07,08,05,34,11.00
2016,07,08,05,35,11.00
2016,07,08,05,36,12.00
2016,07,08,05,37,12.00
2016,07,08,05,38,12.00
2016,07,08,05,39,12.00
2016,07,08,05,40,13.00
2016,07,08,05,41,15.30
2016,07,08,05,42,16.00
2016,07,08,05,43,17.70
2016,07,08,05,44,18.00
2016,07,08,05,45,19.00
2016,07,08,05,46,19.00
2016,07,08,05,47,19.70
2016,07,08,05,48,21.90
2016,07,08,05,49,24.20
2016,07,08,05,50,25.00
2016,07,08,05,51,25.00
2016,07,08,05,52,25.00
2016,07,08,05,53,26.00
2016,07,08,05,54,26.40
2016,07,08,05,55,28.00
2016,07,08,05,56,28.00
2016,07,08,05,57,28.00
2016,07,08,05,58,29.20
2016,07,08,05,59,31.50
2016,07,08,06,00,32.80
2016,07,08,06,01,34.70
2016,07,08,06,02,33.00
2016,07,08,06,03,32.80
2016,07,08,06,04,31.30
2016,07,08,06,05,30.00
2016,07,08,06,06,30.00
2016,07,08,06,07,30.00
2016,07,08,06,08,26.80
2016,07,08,06,09,27.70
2016,07,08,06,10,27.70
2016,07,08,06,11,25.00
2016,07,08,06,12,25.30
2016,07,08,06,13,25.60
2016,07,08,06,14,25.00
2016,07,08,06,15,25.00
2016,07,08,06,16,25.00
2016,07,08,06,17,23.30
2016,07,08,06,18,23.00
2016,07,08,06,19,22.80
2016,07,08,06,20,21.00
2016,07,08,06,21,20.30
2016,07,08,06,22,19.00
2016,07,08,06,23,18.50
2016,07,08,06,24,18.00
2016,07,08,06,25,18.00
2016,07,08,06,26,18.00
2016,07,08,06,27,18.00
2016,07,08,06,28,19.00
2016,07,08,06,29,19.00
2016,07,08,06,30,19.70
2016,07,08,06,31,21.00
2016,07,08,06,32,22.10
2016,07,08,06,33,23.00
2016,07,08,06,34,24.60
2016,07,08,06,35,23.30
2016,07,08,06,36,23.00
2016,07,08,06,37,22.60
2016,07,08,06,38,21.00
2016,07,08,06,39,21.00
2016,07,08,06,40,22.10
2016,07,08,06,41,24.20
2016,07,08,06,42,27.20
2016,07,08,06,43,31.20
2016,07,08,06,44,32.00
2016,07,08,06,45,28.00
2016,07,08,06,46,29.00
2016,07,08,06,47,32.40
2016,07,08,06,48,32.50
2016,07,08,06,49,32.00
2016,07,08,06,50,32.00
2016,07,08,06,51,32.80
2016,07,08,06,52,34.70
2016,07,08,06,53,37.10
2016,07,08,06,54,39.60
2016,07,08,06,55,42.00
2016,07,08,06,56,42.80
2016,07,08,06,57,45.30
2016,07,08,06,58,50.60
2016,07,08,06,59,53.70
2016,07,08,07,00,55.70
2016,07,08,07,01,57.80
2016,07,08,07,02,60.00
2016,07,08,07,03,59.60
2016,07,08,07,04,58.00
2016,07,08,07,05,57.10
2016,07,08,07,06,56.00
2016,07,08,07,07,56.00
2016,07,08,07,08,57.40
2016,07,08,07,09,59.70
2016,07,08,07,10,68.90
2016,07,08,07,11,77.10
2016,07,08,07,12,83.00
2016,07,08,07,13,83.00
2016,07,08,07,14,83.50
2016,07,08,07,15,85.20
2016,07,08,07,16,84.70
2016,07,08,07,17,81.60
2016,07,08,07,18,81.00
2016,07,08,07,19,86.90
2016,07,08,07,20,96.40
2016,07,08,07,21,104.10
2016,07,08,07,22,110.60
2016,07,08,07,23,113.00
2016,07,08,07,24,111.70
2016,07,08,07,25,109.50
2016,07,08,07,26,103.10
2016,07,08,07,27,95.40
2016,07,08,07,28,89.60
2016,07,08,07,29,86.00
2016,07,08,07,30,86.00
2016,07,08,07,31,88.40
2016,07,08,07,32,97.50
2016,07,08,07,33,113.60
2016,07,08,07,34,130.50
2016,07,08,07,35,139.90
2016,07,08,07,36,141.60
2016,07,08,07,37,138.20
2016,07,08,07,38,132.30
2016,07,08,07,39,126.80
2016,07,08,07,40,126.00
2016,07,08,07,41,128.80
2016,07,08,07,42,137.70
2016,07,08,07,43,146.90
2016,07,08,07,44,152.50
2016,07,08,07,45,153.20
2016,07,08,07,46,156.20
2016,07,08,07,47,162.20
2016,07,08,07,48,169.00
2016,07,08,07,49,175.90
2016,07,08,07,50,182.60
2016,07,08,07,51,191.00
2016,07,08,07,52,202.40
2016,07,08,07,53,209.10
2016,07,08,07,54,216.80
2016,07,08,07,55,223.20
2016,07,08,07,56,232.20
2016,07,08,07,57,236.00
2016,07,08,07,58,231.10
2016,07,08,07,59,218.30
2016,07,08,08,00,207.60
2016,07,08,08,01,204.20
2016,07,08,08,02,204.20
2016,07,08,08,03,203.40
2016,07,08,08,04,190.00
2016,07,08,08,05,178.90
2016,07,08,08,06,171.40
2016,07,08,08,07,166.60
2016,07,08,08,08,165.00
2016,07,08,08,09,170.10
2016,07,08,08,10,177.60
2016,07,08,08,11,186.10
2016,07,08,08,12,192.00
2016,07,08,08,13,191.20
2016,07,08,08,14,189.10
2016,07,08,08,15,190.80
2016,07,08,08,16,190.90
2016,07,08,08,17,182.80
2016,07,08,08,18,174.70
2016,07,08,08,19,171.40
2016,07,08,08,20,176.40
2016,07,08,08,21,191.40
2016,07,08,08,22,206.80
2016,07,08,08,23,206.90
2016,07,08,08,24,194.80
2016,07,08,08,25,182.90
2016,07,08,08,26,172.60
2016,07,08,08,27,163.80
2016,07,08,08,28,159.40
2016,07,08,08,29,154.50
2016,07,08,08,30,146.00
2016,07,08,08,31,135.90
2016,07,08,08,32,128.30
2016,07,08,08,33,121.90
2016,07,08,08,34,114.80
2016,07,08,08,35,107.90
2016,07,08,08,36,103.90
2016,07,08,08,37,100.30
2016,07,08,08,38,102.50
2016,07,08,08,39,105.10
2016,07,08,08,40,108.90
2016,07,08,08,41,112.70
2016,07,08,08,42,116.60
2016,07,08,08,43,119.60
2016,07,08,08,44,118.20
2016,07,08,08,45,112.70
2016,07,08,08,46,106.00
2016,07,08,08,47,100.40
2016,07,08,08,48,94.60
2016,07,08,08,49,89.50
2016,07,08,08,50,88.00
2016,07,08,08,51,89.40
2016,07,08,08,52,90.80
2016,07,08,08,53,96.80
2016,07,08,08,54,100.80
2016,07,08,08,55,105.50
2016,07,08,08,56,108.50
2016,07,08,08,57,112.30
2016,07,08,08,58,116.20
2016,07,08,08,59,120.00
2016,07,08,09,00,122.60
2016,07,08,09,01,124.80
2016,07,08,09,02,123.10
2016,07,08,09,03,125.00
2016,07,08,09,04,125.00
2016,07,08,09,05,124.20
2016,07,08,09,06,123.00
2016,07,08,09,07,123.00
2016,07,08,09,08,124.40
2016,07,08,09,09,126.50
2016,07,08,09,10,129.70
2016,07,08,09,11,132.20
2016,07,08,09,12,134.20
2016,07,08,09,13,135.60
2016,07,08,09,14,137.00
2016,07,08,09,15,138.00
2016,07,08,09,16,140.20
2016,07,08,09,17,141.80
2016,07,08,09,18,145.40
2016,07,08,09,19,151.20
2016,07,08,09,20,156.60
2016,07,08,09,21,160.80
2016,07,08,09,22,164.40
2016,07,08,09,23,168.00
2016,07,08,09,24,169.00
2016,07,08,09,25,169.00
2016,07,08,09,26,167.50
2016,07,08,09,27,167.00
2016,07,08,09,28,167.00
2016,07,08,09,29,167.00
2016,07,08,09,30,167.60
2016,07,08,09,31,169.90
2016,07,08,09,32,171.00
2016,07,08,09,33,171.00
2016,07,08,09,34,171.00
2016,07,08,09,35,171.80
2016,07,08,09,36,173.90
2016,07,08,09,37,176.50
2016,07,08,09,38,179.50
2016,07,08,09,39,181.70
2016,07,08,09,40,184.40
2016,07,08,09,41,188.30
2016,07,08,09,42,191.40
2016,07,08,09,43,194.40
2016,07,08,09,44,196.80
2016,07,08,09,45,200.20
2016,07,08,09,46,204.60
2016,07,08,09,47,208.10
2016,07,08,09,48,211.80
2016,07,08,09,49,212.00
2016,07,08,09,50,211.00
2016,07,08,09,51,209.50
2016,07,08,09,52,209.00
2016,07,08,09,53,209.00
2016,07,08,09,54,211.30
2016,07,08,09,55,213.20
2016,07,08,09,56,214.60
2016,07,08,09,57,216.80
2016,07,08,09,58,220.50
2016,07,08,09,59,226.60
2016,07,08,10,00,231.10
2016,07,08,10,01,235.40
2016,07,08,10,02,238.90
2016,07,08,10,03,239.00
2016,07,08,10,04,238.50
2016,07,08,10,05,237.00
2016,07,08,10,06,236.60
2016,07,08,10,07,234.80
2016,07,08,10,08,232.70
2016,07,08,10,09,229.80
2016,07,08,10,10,225.60
2016,07,08,10,11,221.10
2016,07,08,10,12,219.60
2016,07,08,10,13,218.00
2016,07,08,10,14,217.20
2016,07,08,10,15,216.00
2016,07,08,10,16,214.90
2016,07,08,10,17,215.50
2016,07,08,10,18,216.00
2016,07,08,10,19,216.00
2016,07,08,10,20,216.00
2016,07,08,10,21,215.50
2016,07,08,10,22,212.90
2016,07,08,10,23,209.20
2016,07,08,10,24,205.40
2016,07,08,10,25,199.40
2016,07,08,10,26,193.20
2016,07,08,10,27,186.10
2016,07,08,10,28,178.70
2016,07,08,10,29,175.20
2016,07,08,10,30,171.70
2016,07,08,10,31,170.10
2016,07,08,10,32,169.00
2016,07,08,10,33,170.20
2016,07,08,10,34,173.10
2016,07,08,10,35,177.20
2016,07,08,10,36,182.50
2016,07,08,10,37,188.40
2016,07,08,10,38,192.70
2016,07,08,10,39,195.60
2016,07,08,10,40,197.90
2016,07,08,10,41,199.50
2016,07,08,10,42,201.20
2016,07,08,10,43,203.50
2016,07,08,10,44,206.60
2016,07,08,10,45,213.30
2016,07,08,10,46,218.80
2016,07,08,10,47,224.70
2016,07,08,10,48,230.20
2016,07,08,10,49,233.90
2016,07,08,10,50,237.70
2016,07,08,10,51,242.40
2016,07,08,10,52,247.00
2016,07,08,10,53,254.30
2016,07,08,10,54,265.60
2016,07,08,10,55,278.90
2016,07,08,10,56,291.50
2016,07,08,10,57,303.00
2016,07,08,10,58,314.80
2016,07,08,10,59,324.50
2016,07,08,11,00,332.20
2016,07,08,11,01,339.60
2016,07,08,11,02,344.60
2016,07,08,11,03,344.70
2016,07,08,11,04,343.00
2016,07,08,11,05,343.70
2016,07,08,11,06,346.40
2016,07,08,11,07,350.20
2016,07,08,11,08,356.90
2016,07,08,11,09,361.40
2016,07,08,11,10,366.50
2016,07,08,11,11,373.10
2016,07,08,11,12,382.40
2016,07,08,11,13,392.80
2016,07,08,11,14,407.00
2016,07,08,11,15,420.00
2016,07,08,11,16,424.60
2016,07,08,11,17,432.30
2016,07,08,11,18,440.00
2016,07,08,11,19,453.00
2016,07,08,11,20,527.00
2016,07,08,11,21,537.70
2016,07,08,11,22,555.80
2016,07,08,11,23,486.90
2016,07,08,11,24,466.00
2016,07,08,11,25,476.10
2016,07,08,11,26,482.00
2016,07,08,11,27,478.80
2016,07,08,11,28,469.00
2016,07,08,11,29,465.00
2016,07,08,11,30,477.30
2016,07,08,11,31,490.90
2016,07,08,11,32,488.10
2016,07,08,11,33,488.80
2016,07,08,11,34,496.30
2016,07,08,11,35,504.50
2016,07,08,11,36,517.00
2016,07,08,11,37,512.30
2016,07,08,11,38,515.00
2016,07,08,11,39,520.10
2016,07,08,11,40,502.80
2016,07,08,11,41,502.00
2016,07,08,11,42,506.10
2016,07,08,11,43,513.20
2016,07,08,11,44,515.00
2016,07,08,11,45,533.30
2016,07,08,11,46,605.50
2016,07,08,11,47,563.90
2016,07,08,11,48,541.70
2016,07,08,11,49,550.20
2016,07,08,11,50,554.30
2016,07,08,11,51,546.70
2016,07,08,11,52,526.20
2016,07,08,11,53,525.10
2016,07,08,11,54,536.80
2016,07,08,11,55,533.00
2016,07,08,11,56,571.70
2016,07,08,11,57,593.60
2016,07,08,11,58,556.50
2016,07,08,11,59,544.00
2016,07,08,12,00,605.40
2016,07,08,12,01,631.00
2016,07,08,12,02,631.00
2016,07,08,12,03,631.00
2016,07,08,12,04,631.00
2016,07,08,12,05,661.90
2016,07,08,12,06,729.00
2016,07,08,12,07,685.50
2016,07,08,12,08,628.30
2016,07,08,12,09,621.00
2016,07,08,12,10,621.00
2016,07,08,12,11,536.40
2016,07,08,12,12,527.00
2016,07,08,12,13,524.40
2016,07,08,12,14,520.50
2016,07,08,12,15,530.20
2016,07,08,12,16,534.00
2016,07,08,12,17,534.00
2016,07,08,12,18,484.30
2016,07,08,12,19,448.90
2016,07,08,12,20,441.90
2016,07,08,12,21,450.00
2016,07,08,12,22,450.00
2016,07,08,12,23,450.00
2016,07,08,12,24,767.50
2016,07,08,12,25,1085.00
2016,07,08,12,26,1085.00
2016,07,08,12,27,1085.00
2016,07,08,12,28,1085.00
2016,07,08,12,29,1095.20
2016,07,08,12,30,1172.70
2016,07,08,12,31,1148.20
2016,07,08,12,32,1194.00
2016,07,08,12,33,1194.00
2016,07,08,12,34,1188.00
2016,07,08,12,35,1185.00
2016,07,08,12,36,1185.00
2016,07,08,12,37,518.50
2016,07,08,12,38,499.20
2016,07,08,12,39,541.40
2016,07,08,12,40,554.00
2016,07,08,12,41,470.50
2016,07,08,12,42,387.00
2016,07,08,12,43,387.00
2016,07,08,12,44,977.20
2016,07,08,12,45,1182.10
2016,07,08,12,46,1079.70
2016,07,08,12,47,1044.70
2016,07,08,12,48,1104.90
2016,07,08,12,49,1134.00
2016,07,08,12,50,1199.00
2016,07,08,12,51,1234.00
2016,07,08,12,52,1234.00
2016,07,08,12,53,1234.00
2016,07,08,12,54,1176.00
2016,07,08,12,55,1192.00
2016,07,08,12,56,1192.00
2016,07,08,12,57,912.70
2016,07,08,12,58,394.00
2016,07,08,12,59,394.00
2016,07,08,13,00,394.00
2016,07,08,13,01,490.00
2016,07,08,13,02,467.80
2016,07,08,13,03,470.20
2016,07,08,13,04,508.40
2016,07,08,13,05,517.80
2016,07,08,13,06,530.40
2016,07,08,13,07,549.50
2016,07,08,13,08,546.40
2016,07,08,13,09,517.90
2016,07,08,13,10,520.60
2016,07,08,13,11,532.80
2016,07,08,13,12,534.00
2016,07,08,13,13,534.80
2016,07,08,13,14,547.90
2016,07,08,13,15,604.30
2016,07,08,13,16,645.00
2016,07,08,13,17,645.00
2016,07,08,13,18,621.00
2016,07,08,13,19,600.20
2016,07,08,13,20,578.00
2016,07,08,13,21,594.40
2016,07,08,13,22,664.00
2016,07,08,13,23,664.00
2016,07,08,13,24,669.20
2016,07,08,13,25,675.00
2016,07,08,13,26,642.10
2016,07,08,13,27,628.00
2016,07,08,13,28,628.00
2016,07,08,13,29,646.80
2016,07,08,13,30,807.00
2016,07,08,13,31,807.00
2016,07,08,13,32,807.00
2016,07,08,13,33,624.40
2016,07,08,13,34,466.80
2016,07,08,13,35,445.90
2016,07,08,13,36,438.10
2016,07,08,13,37,426.00
2016,07,08,13,38,435.60
2016,07,08,13,39,456.80
2016,07,08,13,40,452.90
2016,07,08,13,41,420.20
2016,07,08,13,42,378.80
2016,07,08,13,43,351.00
2016,07,08,13,44,335.20
2016,07,08,13,45,327.70
2016,07,08,13,46,312.10
2016,07,08,13,47,302.10
2016,07,08,13,48,294.10
2016,07,08,13,49,292.80
2016,07,08,13,50,294.50
2016,07,08,13,51,298.80
2016,07,08,13,52,304.60
2016,07,08,13,53,311.60
2016,07,08,13,54,322.50
2016,07,08,13,55,325.30
2016,07,08,13,56,327.40
2016,07,08,13,57,330.70
2016,07,08,13,58,334.00
2016,07,08,13,59,334.00
2016,07,08,14,00,331.40
2016,07,08,14,01,326.20
2016,07,08,14,02,317.40
2016,07,08,14,03,307.60
2016,07,08,14,04,300.10
2016,07,08,14,05,294.10
2016,07,08,14,06,291.20
2016,07,08,14,07,290.00
2016,07,08,14,08,293.00
2016,07,08,14,09,304.10
2016,07,08,14,10,317.70
2016,07,08,14,11,332.50
2016,07,08,14,12,347.80
2016,07,08,14,13,365.40
2016,07,08,14,14,371.70
2016,07,08,14,15,371.30
2016,07,08,14,16,367.50
2016,07,08,14,17,366.00
2016,07,08,14,18,364.60
2016,07,08,14,19,360.00
2016,07,08,14,20,356.80
2016,07,08,14,21,352.90
2016,07,08,14,22,354.00
2016,07,08,14,23,367.80
2016,07,08,14,24,392.00
2016,07,08,14,25,416.20
2016,07,08,14,26,439.00
2016,07,08,14,27,440.20
2016,07,08,14,28,440.80
2016,07,08,14,29,444.40
2016,07,08,14,30,437.70
2016,07,08,14,31,442.40
2016,07,08,14,32,459.40
2016,07,08,14,33,442.80
2016,07,08,14,34,383.80
2016,07,08,14,35,366.10
2016,07,08,14,36,360.80
2016,07,08,14,37,361.90
2016,07,08,14,38,361.50
2016,07,08,14,39,358.50
2016,07,08,14,40,358.10
2016,07,08,14,41,365.00
2016,07,08,14,42,400.70
2016,07,08,14,43,440.00
2016,07,08,14,44,458.30
2016,07,08,14,45,489.00
2016,07,08,14,46,434.20
2016,07,08,14,47,440.90
2016,07,08,14,48,466.90
2016,07,08,14,49,511.20
2016,07,08,14,50,543.00
2016,07,08,14,51,573.30
2016,07,08,14,52,622.80
2016,07,08,14,53,640.00
2016,07,08,14,54,640.00
2016,07,08,14,55,793.00
2016,07,08,14,56,746.20
2016,07,08,14,57,575.10
2016,07,08,14,58,610.00
2016,07,08,14,59,610.00
2016,07,08,15,00,567.80
2016,07,08,15,01,545.00
2016,07,08,15,02,545.00
2016,07,08,15,03,925.70
2016,07,08,15,04,935.80
2016,07,08,15,05,906.90
2016,07,08,15,06,877.40
2016,07,08,15,07,875.00
2016,07,08,15,08,875.00
2016,07,08,15,09,875.00
2016,07,08,15,10,850.20
2016,07,08,15,11,873.70
2016,07,08,15,12,875.60
2016,07,08,15,13,881.00
2016,07,08,15,14,881.00
2016,07,08,15,15,866.60
2016,07,08,15,16,849.00
2016,07,08,15,17,849.00
2016,07,08,15,18,885.80
2016,07,08,15,19,898.00
2016,07,08,15,20,897.00
2016,07,08,15,21,885.30
2016,07,08,15,22,921.00
2016,07,08,15,23,921.00
2016,07,08,15,24,917.80
2016,07,08,15,25,902.50
2016,07,08,15,26,893.00
2016,07,08,15,27,893.00
2016,07,08,15,28,893.00
2016,07,08,15,29,897.40
2016,07,08,15,30,931.80
2016,07,08,15,31,877.00
2016,07,08,15,32,814.00
2016,07,08,15,33,880.30
2016,07,08,15,34,943.60
2016,07,08,15,35,937.10
2016,07,08,15,36,929.20
2016,07,08,15,37,929.50
2016,07,08,15,38,926.80
2016,07,08,15,39,940.60
2016,07,08,15,40,929.00
2016,07,08,15,41,905.80
2016,07,08,15,42,885.00
2016,07,08,15,43,878.50
2016,07,08,15,44,854.20
2016,07,08,15,45,814.50
2016,07,08,15,46,774.90
2016,07,08,15,47,797.00
2016,07,08,15,48,933.00
2016,07,08,15,49,933.00
2016,07,08,15,50,805.00
2016,07,08,15,51,670.60
2016,07,08,15,52,645.80
2016,07,08,15,53,635.00
2016,07,08,15,54,635.00
2016,07,08,15,55,494.00
2016,07,08,15,56,494.00
2016,07,08,15,57,494.00
2016,07,08,15,58,442.70
2016,07,08,15,59,380.00
2016,07,08,16,00,558.30
2016,07,08,16,01,670.20
2016,07,08,16,02,607.80
2016,07,08,16,03,649.40
2016,07,08,16,04,595.80
2016,07,08,16,05,566.00
2016,07,08,16,06,566.00
2016,07,08,16,07,620.50
2016,07,08,16,08,695.10
2016,07,08,16,09,734.20
2016,07,08,16,10,753.50
2016,07,08,16,11,737.00
2016,07,08,16,12,782.00
2016,07,08,16,13,793.00
2016,07,08,16,14,793.00
2016,07,08,16,15,584.60
2016,07,08,16,16,269.50
2016,07,08,16,17,265.10
2016,07,08,16,18,267.50
2016,07,08,16,19,267.40
2016,07,08,16,20,262.50
2016,07,08,16,21,259.70
2016,07,08,16,22,255.80
2016,07,08,16,23,248.60
2016,07,08,16,24,238.90
2016,07,08,16,25,224.30
2016,07,08,16,26,213.40
2016,07,08,16,27,212.50
2016,07,08,16,28,215.60
2016,07,08,16,29,223.90
2016,07,08,16,30,240.40
2016,07,08,16,31,264.00
2016,07,08,16,32,264.00
2016,07,08,16,33,307.30
2016,07,08,16,34,338.80
2016,07,08,16,35,305.50
2016,07,08,16,36,270.80
2016,07,08,16,37,245.30
2016,07,08,16,38,233.80
2016,07,08,16,39,233.80
2016,07,08,16,40,241.00
2016,07,08,16,41,268.20
2016,07,08,16,42,282.30
2016,07,08,16,43,264.90
2016,07,08,16,44,285.10
2016,07,08,16,45,360.90
2016,07,08,16,46,297.90
2016,07,08,16,47,272.60
2016,07,08,16,48,273.90
2016,07,08,16,49,267.70
2016,07,08,16,50,268.20
2016,07,08,16,51,268.10
2016,07,08,16,52,295.70
2016,07,08,16,53,309.00
2016,07,08,16,54,309.00
2016,07,08,16,55,246.50
2016,07,08,16,56,227.40
2016,07,08,16,57,222.20
2016,07,08,16,58,232.80
2016,07,08,16,59,234.00
2016,07,08,17,00,211.80
2016,07,08,17,01,199.10
2016,07,08,17,02,197.60
2016,07,08,17,03,205.10
2016,07,08,17,04,202.00
2016,07,08,17,05,203.10
2016,07,08,17,06,210.90
2016,07,08,17,07,231.70